Flag for U.S.A. Weather past 2 weeks in Racine, Wisconsin, U.S.A.

Now
79 °F

Sunny.


Feels Like: 79 °F
Forecast: 62 / 80 °F
Wind: 9 mph from Northwest

Location: Batten International Airport

Current Time: Aug 4, 2015 at 3:25:30 PM

Latest Report: Aug 4, 2015 at 2:53 PM


Visibility: 10 mi

Pressure: 29.96 "Hg

Humidity: 38%

Dew point: 51 °F

Location of RacineLocation

Historic Weather in Racine — Graph

°F

Racine temperature yesterday

Maximum temperature yesterday: 80 °F (at 2:53 PM)
Minimum temperature yesterday: 64 °F (at 3:53 AM)
Average temperature yesterday: 72 °F

Past Weeks' High & Low Weather Summary

 TemperatureHumidityPressure
High92 °F (Aug 2, 2:53 PM)91% (Jul 27, 5:53 AM)30.05 "Hg (Jul 27, 5:53 AM)
Low61 °F (Jul 22, 4:53 AM)26% (Jul 31, 1:53 PM)29.57 "Hg (Aug 2, 7:53 PM)
Average74 °F62%29.93 "Hg
* Reported Jul 20 1:53 PM — Aug 4 1:53 PM, Racine, Weather by CustomWeather, © 2015

Note: Actual official high and low records may vary slightly from our data, if they occured in-between our weather recording intervals... More about our weather records

Advertising

Racine weather history for previous 24 hours

 ConditionsComfort  
Time TempWeatherWind HumidityBarometerVisibility
1:53 PM
Tue, Aug 4
78 °FPartly sunny.13 mph42%29.97 "Hg10 mi
12:53 PM78 °FPassing clouds.13 mph40%29.96 "Hg10 mi
11:53 AM77 °FScattered clouds.14 mph44%29.96 "Hg10 mi
10:53 AM78 °FSunny.12 mph43%29.96 "Hg10 mi
9:53 AM75 °FSunny.8 mph48%29.96 "Hg10 mi
8:53 AM72 °FSunny.8 mph55%29.96 "Hg10 mi
7:53 AM68 °FSunny.6 mph61%29.95 "Hg10 mi
6:53 AM63 °FSunny.7 mph70%29.94 "Hg10 mi
5:53 AM61 °FClear.6 mph72%29.93 "Hg10 mi
4:53 AM61 °FClear.8 mph72%29.91 "Hg10 mi
3:53 AM61 °FClear.7 mph75%29.91 "Hg10 mi
2:53 AM62 °FClear.7 mph73%29.90 "Hg10 mi
1:53 AM64 °FClear.6 mph65%29.91 "Hg10 mi
12:53 AM65 °FClear.5 mph63%29.90 "Hg10 mi
11:53 PM
Mon, Aug 3
66 °FPassing clouds.5 mph61%29.90 "Hg10 mi
10:53 PM68 °FPassing clouds.5 mph57%29.89 "Hg10 mi
9:53 PM68 °FClear.3 mph59%29.89 "Hg10 mi
8:53 PM70 °FSunny.3 mph53%29.87 "Hg10 mi
7:53 PM75 °FSunny.5 mph43%29.85 "Hg10 mi
6:53 PM78 °FSunny.7 mph36%29.84 "Hg10 mi
5:53 PM80 °FPassing clouds.12 mph34%29.84 "Hg10 mi
4:53 PM80 °FSunny.13 mph32%29.84 "Hg10 mi
3:53 PM80 °FPassing clouds.14 mph31%29.84 "Hg10 mi
Weather by CustomWeather, © 2015

See weather overviewHow to use our weather pages